OK2PAT-12 Weather Reports


Display with metric or nautical units.
time (UTC)temp
F
wind
direction
speed
MPH
gust
MPH
rain 1hr
in
rain 24hr
in
rain mn
in
humidity
%
barometer
mb
20260507083732 69 0.0 0.0 0.00 0.00 0.00 59 1011.7
20260507082732 69 0.0 0.0 0.00 0.00 0.00 61 1011.7
20260507081732 69 0.0 0.0 0.00 0.00 0.00 62 1011.7
20260507080732 68 0.0 0.0 0.00 0.00 0.00 64 1011.6
20260507075732 67 0.0 0.0 0.00 0.00 0.00 65 1011.5
20260507074731 67 0.0 0.0 0.00 0.00 0.00 65 1011.5
20260507073731 66 0.0 0.0 0.00 0.00 0.00 65 1011.5
20260507072731 67 0.0 0.0 0.00 0.00 0.00 65 1011.4
20260507071731 67 0.0 0.0 0.00 0.00 0.00 66 1011.3
20260507070728 66 0.0 0.0 0.00 0.00 0.00 68 1011.2
20260507065728 66 0.0 0.0 0.00 0.00 0.00 70 1011.2
20260507064728 65 0.0 0.0 0.00 0.00 0.00 71 1011.1
20260507063728 64 0.0 0.0 0.00 0.00 0.00 72 1011.0
20260507062725 63 0.0 0.0 0.00 0.00 0.00 73 1011.1
20260507061725 63 0.0 0.0 0.00 0.00 0.00 74 1011.0
20260507060725 62 0.0 0.0 0.00 0.00 0.00 75 1010.9
20260507055725 62 0.0 0.0 0.00 0.00 0.00 76 1010.7
20260507053725 60 0.0 0.0 0.00 0.00 0.00 78 1010.6
20260507052725 59 0.0 0.0 0.00 0.00 0.00 79 1010.5
20260507051725 59 0.0 0.0 0.00 0.00 0.00 79 1010.4
20260507045725 59 0.0 0.0 0.00 0.00 0.00 80 1010.1
20260507044725 58 0.0 0.0 0.00 0.00 0.00 80 1010.0
20260507042724 58 0.0 0.0 0.00 0.00 0.00 81 1009.8
20260507040723 58 0.0 0.0 0.00 0.00 0.00 81 1009.5
20260507035723 57 0.0 0.0 0.00 0.00 0.00 82 1009.3
20260507034723 57 0.0 0.0 0.00 0.00 0.00 82 1009.2
20260507033723 57 0.0 0.0 0.00 0.00 0.00 83 1009.2
20260507032723 57 0.0 0.0 0.00 0.00 0.00 84 1009.2
20260507030723 55 0.0 0.0 0.00 0.00 0.00 87 1009.0
20260507024722 55 0.0 0.0 0.00 0.00 0.00 87 1008.9
20260507023721 54 0.0 0.0 0.00 0.00 0.00 87 1008.8
20260507022721 54 0.0 0.0 0.00 0.00 0.00 86 1008.6
20260507020722 54 0.0 0.0 0.00 0.00 0.00 83 1008.6
20260507014721 56 0.0 0.0 0.00 0.00 0.00 80 1008.4
20260507013104 56 0.0 0.0 0.00 0.00 0.00 78 1008.2
20260507012104 57 0.0 0.0 0.00 0.00 0.00 78 1008.1
20260507010719 56 0.0 0.0 0.00 0.00 0.00 78 1008.1
20260507005720 56 0.0 0.0 0.00 0.00 0.00 79 1008.1
20260507004720 56 0.0 0.0 0.00 0.00 0.00 80 1008.0
20260507003719 56 0.0 0.0 0.00 0.00 0.00 80 1007.9
20260507002719 57 0.0 0.0 0.00 0.00 0.00 81 1007.9
20260507001719 57 0.0 0.0 0.00 0.00 0.00 80 1008.0
20260507000719 56 0.0 0.0 0.00 0.00 0.00 80 1008.3
20260506235719 56 0.0 0.0 0.00 0.00 0.00 80 1008.2
20260506234719 57 0.0 0.0 0.00 0.00 0.00 80 1008.1
20260506232720 56 0.0 0.0 0.00 0.00 0.00 81 1008.2
20260506231720 57 0.0 0.0 0.00 0.00 0.00 80 1008.2
20260506230720 57 0.0 0.0 0.00 0.00 0.00 80 1008.2
20260506225720 58 0.0 0.0 0.00 0.00 0.00 79 1008.2
20260506224720 58 0.0 0.0 0.00 0.00 0.00 77 1008.2
20260506223720 59 0.0 0.0 0.00 0.00 0.00 74 1008.3
20260506222720 60 0.0 0.0 0.00 0.00 0.00 70 1008.1
20260506221720 62 0.0 0.0 0.00 0.00 0.00 65 1008.0
20260506220720 64 0.0 0.0 0.00 0.00 0.00 60 1007.9
20260506214720 64 0.0 0.0 0.00 0.00 0.00 58 1007.7
20260506213719 64 0.0 0.0 0.00 0.00 0.00 57 1007.6
20260506212719 65 0.0 0.0 0.00 0.00 0.00 57 1007.5
20260506210718 65 0.0 0.0 0.00 0.00 0.00 56 1007.3
20260506205718 65 0.0 0.0 0.00 0.00 0.00 55 1007.3
20260506204718 65 0.0 0.0 0.00 0.00 0.00 55 1007.2
20260506203718 65 0.0 0.0 0.00 0.00 0.00 55 1007.2
20260506202718 65 0.0 0.0 0.00 0.00 0.00 55 1007.2
20260506201718 65 0.0 0.0 0.00 0.00 0.00 55 1007.1
20260506200717 65 0.0 0.0 0.00 0.00 0.00 55 1007.0
20260506195718 65 0.0 0.0 0.00 0.00 0.00 56 1007.0
20260506194718 65 0.0 0.0 0.00 0.00 0.00 56 1007.0
20260506193717 65 0.0 0.0 0.00 0.00 0.00 56 1007.0
20260506192718 65 0.0 0.0 0.00 0.00 0.00 55 1007.0
20260506191717 65 0.0 0.0 0.00 0.00 0.00 55 1006.9
20260506190717 66 0.0 0.0 0.00 0.00 0.00 55 1006.7
20260506185717 66 0.0 0.0 0.00 0.00 0.00 55 1006.5
20260506184718 66 0.0 0.0 0.00 0.00 0.00 54 1006.4
20260506183443 67 0.0 0.0 0.00 0.00 0.00 53 1006.3
20260506182443 67 0.0 0.0 0.00 0.00 0.00 52 1006.3
20260506181443 68 0.0 0.0 0.00 0.00 0.00 52 1006.3
20260506175700 69 0.0 0.0 0.00 0.00 0.00 50 1006.3
20260506174700 70 0.0 0.0 0.00 0.00 0.00 49 1006.4
20260506173700 71 0.0 0.0 0.00 0.00 0.00 48 1006.5
20260506172700 71 0.0 0.0 0.00 0.00 0.00 47 1006.5
20260506171700 72 0.0 0.0 0.00 0.00 0.00 46 1006.6
20260506170700 72 0.0 0.0 0.00 0.00 0.00 45 1006.6
20260506165700 73 0.0 0.0 0.00 0.00 0.00 46 1006.6
20260506164700 73 0.0 0.0 0.00 0.00 0.00 46 1006.6
20260506163700 73 0.0 0.0 0.00 0.00 0.00 45 1006.6
20260506162659 74 0.0 0.0 0.00 0.00 0.00 45 1006.8
20260506161659 74 0.0 0.0 0.00 0.00 0.00 45 1006.9
20260506160659 73 0.0 0.0 0.00 0.00 0.00 46 1007.1
20260506155659 73 0.0 0.0 0.00 0.00 0.00 46 1007.3
20260506154659 73 0.0 0.0 0.00 0.00 0.00 45 1007.4
20260506153659 74 0.0 0.0 0.00 0.00 0.00 45 1007.3
20260506152659 75 0.0 0.0 0.00 0.00 0.00 44 1007.4
20260506151659 75 0.0 0.0 0.00 0.00 0.00 43 1007.5
20260506150659 75 0.0 0.0 0.00 0.00 0.00 43 1007.6
20260506145700 75 0.0 0.0 0.00 0.00 0.00 41 1007.7
20260506144659 77 0.0 0.0 0.00 0.00 0.00 40 1007.8
20260506143659 78 0.0 0.0 0.00 0.00 0.00 39 1007.8
20260506142659 78 0.0 0.0 0.00 0.00 0.00 40 1007.8
20260506141659 82 0.0 0.0 0.00 0.00 0.00 40 1007.9
20260506140659 78 0.0 0.0 0.00 0.00 0.00 40 1008.0
20260506135659 77 0.0 0.0 0.00 0.00 0.00 40 1008.1
20260506134659 77 0.0 0.0 0.00 0.00 0.00 40 1008.2
20260506133659 77 0.0 0.0 0.00 0.00 0.00 39 1008.2
20260506132659 77 0.0 0.0 0.00 0.00 0.00 38 1008.2
20260506131659 78 0.0 0.0 0.00 0.00 0.00 38 1008.2
20260506130659 78 0.0 0.0 0.00 0.00 0.00 39 1008.3
20260506125659 78 0.0 0.0 0.00 0.00 0.00 39 1008.3
20260506124659 77 0.0 0.0 0.00 0.00 0.00 39 1008.3
20260506123659 76 0.0 0.0 0.00 0.00 0.00 41 1008.4
20260506122659 75 0.0 0.0 0.00 0.00 0.00 41 1008.4
20260506121659 75 0.0 0.0 0.00 0.00 0.00 41 1008.4
20260506120659 75 0.0 0.0 0.00 0.00 0.00 41 1008.3
20260506115659 75 0.0 0.0 0.00 0.00 0.00 42 1008.4
20260506114659 74 0.0 0.0 0.00 0.00 0.00 43 1008.4
20260506113659 73 0.0 0.0 0.00 0.00 0.00 44 1008.5
20260506112659 73 0.0 0.0 0.00 0.00 0.00 45 1008.5
20260506111659 73 0.0 0.0 0.00 0.00 0.00 45 1008.6
20260506110659 73 0.0 0.0 0.00 0.00 0.00 47 1008.6
20260506105659 73 0.0 0.0 0.00 0.00 0.00 47 1008.6
20260506104659 73 0.0 0.0 0.00 0.00 0.00 48 1008.7
20260506103659 73 0.0 0.0 0.00 0.00 0.00 49 1008.7
20260506102659 72 0.0 0.0 0.00 0.00 0.00 50 1008.8
20260506101659 71 0.0 0.0 0.00 0.00 0.00 51 1008.9
20260506100659 71 0.0 0.0 0.00 0.00 0.00 50 1009.0
20260506095659 70 0.0 0.0 0.00 0.00 0.00 50 1009.0
20260506094659 70 0.0 0.0 0.00 0.00 0.00 51 1008.9
20260506093659 70 0.0 0.0 0.00 0.00 0.00 50 1008.8
20260506092659 70 0.0 0.0 0.00 0.00 0.00 51 1008.8
20260506091659 70 0.0 0.0 0.00 0.00 0.00 51 1008.8
20260506090659 70 0.0 0.0 0.00 0.00 0.00 50 1008.8
20260506085659 70 0.0 0.0 0.00 0.00 0.00 51 1008.7
20260506084659 69 0.0 0.0 0.00 0.00 0.00 53 1008.6